DECAYED

METEOR 2-6 DEB, 29200 (Decayed)

Orbit data source: Space-Track

METEOR 2-6 DEB, 29200 was space debris in LEO originally from a launch on Tue, 09 Sep 1980 UTC launched from the Plesetsk Missile And Space Complex (PKMTR). Debris objects in space refer to the collection of defunct objects orbiting the Earth. Examples of debris include non-operational satellites, rocket bodies, and fragments generated from explosions, collisions, or faulty payload assembly.

Loading next visibility...
Identifier
29200, 1980-073F
Orbit
Decayed
Last TLE update
1 year ago
Origin
Manufacturer
Unknown
Mission
Decayed spacecraft
Bus & Motor
Unknown
Mass
Unknown
Launch date (UTC)
1980-09-09 (45 years ago)
Launch vehicle
Unknown
Launch site
Plesetsk Missile And Space Complex (PKMTR)
Object type
Payload
Rocket body
Debris
Shape & HBR
Unknown
Radar Cross Section
Small (<0.1 m²)

Expand to show TLE details & history

TLE from 1 year ago
0 METEOR 2-6 DEB
1 29200U 80073F   24100.85682443  .00033603  00000-0  51694-2 0  9990
2 29200  81.1842 299.2828 0023100 346.0166  14.0396 14.73151719943537
Epoch: 2024-04-09T20:33Z
TLE epoch observation values (Epoch: 2024-04-09T20:33:49.63Z)
Latitude
-0.0001°
Longitude
152.24975°
Altitude
638.254 km
Speed
7.547 km/s
True Right ascension
19h 57m 07s
True Declination
0° 00' 00"
Sunlit
Object was in daylight at epoch
Visualization orbit readout
Visualization observer readout
Orbital elements
Apogee altitude
664.348 km
Perigee altitude
631.887 km
Semi-major axis
7,026.255 km
Eccentricity
0.00231
Inclination
81.1842°
RAAN
299.2828°
Arg. of periapsis
346.0166°
True anomaly
Unknown
Mean anomaly
14.0396°
Eccentric anomaly
Unknown
Mean motion
3.68517 °/min
Orbital period
97.69 mins
BSTAR
0.0051694
Loading maneuver chart data...
Loading SW <> Apogee altitude chart data...
Loading historical data...
Loading historical data...
Loading historical data...
Loading historical data...
Loading historical data...
Loading historical data...
Loading historical data...

METEOR 2-6 DEB Visibility forecast

Observer location: undefined°, undefined°

Span
Click to sort rows by Start time (UTC) header in descending order
Start Az.
Max El. time (UTC)
Max El. Az.
Max El.
End time (UTC)
End Az.
6 mins2025-07-03 22:55:53.695Z169.565° S2025-07-03 22:58:53.695Z116.285° SE35.572°2025-07-03 23:01:53.695Z25.65° NE
5 mins2025-07-04 10:25:53.695Z335.887° NNW2025-07-04 10:27:53.695Z273.987° WNW40.49°2025-07-04 10:30:53.695Z186.76° SSW
|